Flag for Switzerland Weather past 2 weeks in Thun, Bern, Switzerland

Now
48 °F

Overcast.


Feels Like: 48 °F
Forecast: 36 / 60 °F
Wind: 1 mph from North

Location: Bern / Belp

Current Time: Oct 26, 2014 at 12:22:34 AM

Latest Report: Oct 25, 2014 at 11:50 PM


Visibility: 4 mi

Pressure: 30.21 "Hg

Humidity: 94%

Dew point: 46 °F

Location of ThunLocation

Historic Weather in Thun — Graph

°F

Thun temperature yesterday

Maximum temperature yesterday: 57 °F (at 3:20 PM)
Minimum temperature yesterday: 43 °F (at 12:20 AM)
Average temperature yesterday: 49 °F

Past Weeks' High & Low Weather Summary

 TemperatureHumidityPressure
High73 °F (Oct 19, 3:20 PM)100% (Oct 10, 11:50 PM)30.30 "Hg (Oct 10, 11:50 PM)
Low30 °F (Oct 24, 7:20 AM)50% (Oct 20, 2:50 PM)29.77 "Hg (Oct 13, 4:50 AM)
Average53 °F87%30.04 "Hg
* Reported Oct 10 11:50 PM — Oct 25 11:20 PM, Thun, Weather by CustomWeather, © 2014

Note: Actual official high and low records may vary slightly from our data, if they occured in-between our weather recording intervals... More about our weather records

Advertising

Thun weather history for previous 24 hours

 ConditionsComfort  
Time TempWeatherWind HumidityBarometerVisibility
11:20 PM
Oct 25
48 °FPassing clouds.1 mph100%30.21 "Hg4 mi
10:50 PM48 °FPassing clouds.1 mph100%30.21 "Hg4 mi
10:20 PM50 °FPartly cloudy.1 mph94%30.21 "HgN/A
9:50 PM50 °FMostly cloudy.3 mph94%30.21 "HgN/A
9:20 PM50 °FPartly cloudy.5 mph94%30.18 "HgN/A
8:50 PM50 °FMostly cloudy.5 mph94%30.18 "HgN/A
8:20 PM50 °FPassing clouds.5 mph100%30.18 "HgN/A
7:50 PM50 °FPartly cloudy.5 mph94%30.18 "HgN/A
7:20 PM52 °FBroken clouds.3 mph94%30.18 "HgN/A
6:50 PM52 °FPartly sunny.3 mph94%30.15 "HgN/A
6:20 PM54 °FPartly sunny.5 mph88%30.15 "HgN/A
5:50 PM54 °FPartly sunny.5 mph88%30.15 "HgN/A
5:20 PM54 °FPartly sunny.5 mph88%30.15 "HgN/A
4:50 PM55 °FPartly sunny.2 mph82%30.15 "HgN/A
4:20 PM55 °FPartly sunny.1 mph77%30.15 "HgN/A
3:50 PM57 °FPartly sunny.1 mph72%30.15 "HgN/A
3:20 PM57 °FBroken clouds.1 mph77%30.12 "HgN/A
2:50 PM55 °FPartly sunny.2 mph77%30.15 "HgN/A
2:20 PM55 °FBroken clouds.1 mph77%30.15 "HgN/A
1:50 PM55 °FPartly sunny.2 mph77%30.15 "HgN/A
1:20 PM54 °FPartly sunny.2 mph77%30.15 "HgN/A
12:50 PM54 °FPartly sunny.3 mph82%30.15 "HgN/A
12:20 PM52 °FPartly sunny.3 mph82%30.15 "HgN/A
11:50 AM52 °FPartly sunny.5 mph88%30.15 "HgN/A
11:20 AM50 °FPartly sunny.3 mph88%30.15 "HgN/A
10:50 AM50 °FLight rain. Partly sunny.1 mph88%30.15 "HgN/A
10:20 AM48 °FPartly sunny.2 mph94%30.12 "HgN/A
9:50 AM46 °FPartly sunny.No wind93%30.12 "HgN/A
9:20 AM46 °FPartly sunny.No wind93%30.12 "HgN/A
8:50 AM46 °FPassing clouds.No wind93%30.12 "HgN/A
8:20 AM45 °FPassing clouds.2 mph93%30.12 "HgN/A
7:50 AM45 °FPassing clouds.2 mph100%30.12 "HgN/A
7:20 AM45 °FPassing clouds.6 mph93%30.12 "HgN/A
6:50 AM45 °FPassing clouds.6 mph100%30.12 "HgN/A
6:20 AM45 °FPassing clouds.3 mph100%30.12 "HgN/A
5:50 AM45 °FPartly cloudy.3 mph93%30.09 "Hg5 mi
5:20 AM45 °FPartly cloudy.6 mph93%30.09 "HgN/A
4:50 AM45 °FMostly cloudy.1 mph93%30.09 "HgN/A
4:20 AM45 °FPartly cloudy.1 mph93%30.09 "Hg6 mi
3:50 AM45 °FMostly cloudy.2 mph93%30.09 "HgN/A
3:20 AM43 °FMostly cloudy.1 mph100%30.12 "HgN/A
2:50 AM43 °FOvercast.1 mph100%30.12 "HgN/A
2:20 AM43 °FOvercast.2 mph100%30.12 "Hg5 mi
1:50 AM43 °FPassing clouds.3 mph93%30.12 "HgN/A
1:20 AM43 °FOvercast.1 mph93%30.12 "HgN/A
12:50 AM43 °FOvercast.1 mph100%30.12 "Hg6 mi
12:20 AM43 °FOvercast.2 mph100%30.12 "Hg5 mi
Weather by CustomWeather, © 2014

See weather overviewHow to use our weather pages